When you browse on this site, cookies collect data to enhance your experience and personalize the content and advertising you see.
Visit our Privacy Policy to learn more. By continuing to use the site, you agree to this use of cookies and data.
  • In Hungary
  • List of Countries
  • For 7 days
  • Water Temperature
  • Weather Map
  • News
  • Weather Widgets
  • user-avatar
    Login

    Hourly Weather Sizikova

    Today, 18 January, Saturday

    Time Temperature Precipitation Wind Pressure Humidity
    00:00 -14°C° 0 mm 1 mps 747 mmHg 87%
    01:00 -16°C° 0 mm 2 mps 747 mmHg 89%
    02:00 -16°C° 0 mm 2 mps 747 mmHg 91%
    03:00 -15°C° 0 mm 2 mps 747 mmHg 93%
    04:00 -14°C° 0 mm 2 mps 747 mmHg 97%
    05:00 -15°C° 0 mm 3 mps 746 mmHg 92%
    06:00 -16°C° 0 mm 3 mps 745 mmHg 87%
    07:00 -16°C° 0 mm 3 mps 745 mmHg 82%
    08:00 -14°C° 0 mm 3 mps 744 mmHg 85%
    09:00 -12°C° 0 mm 4 mps 744 mmHg 87%
    10:00 -10°C° 0 mm 4 mps 743 mmHg 89%
    11:00 -8°C° 0 mm 5 mps 743 mmHg 87%
    12:00 -7°C° 0 mm 5 mps 742 mmHg 85%
    13:00 -5°C° 0 mm 5 mps 741 mmHg 83%
    14:00 -5°C° 0 mm 5 mps 741 mmHg 84%
    15:00 -5°C° 0 mm 5 mps 741 mmHg 86%
    16:00 -5°C° 0 mm 5 mps 741 mmHg 87%
    17:00 -5°C° 0 mm 5 mps 742 mmHg 88%
    18:00 -5°C° 0 mm 5 mps 742 mmHg 89%
    19:00 -4°C° 0 mm 4 mps 742 mmHg 90%
    20:00 -7°C° 0.1 mm 4 mps 743 mmHg 90%
    21:00 -7°C° 0.1 mm 3 mps 744 mmHg 91%
    22:00 -9°C° 0.1 mm 3 mps 744 mmHg 91%
    23:00 -9°C° 0 mm 2 mps 745 mmHg 91%

    Tomorrow, 19 January, Sunday

    Time Temperature Precipitation Wind Pressure Humidity
    00:00 -12°C° 0 mm 2 mps 745 mmHg 90%
    01:00 -12°C° 0 mm 1 mps 746 mmHg 90%
    02:00 -12°C° 0 mm 1 mps 746 mmHg 90%
    03:00 -13°C° 0 mm 1 mps 747 mmHg 90%
    04:00 -14°C° 0 mm 1 mps 747 mmHg 90%
    05:00 -14°C° 0 mm 1 mps 747 mmHg 91%
    06:00 -14°C° 0 mm 1 mps 747 mmHg 92%
    07:00 -16°C° 0 mm 2 mps 747 mmHg 94%
    08:00 -15°C° 0 mm 2 mps 747 mmHg 91%
    09:00 -15°C° 0 mm 2 mps 748 mmHg 89%
    10:00 -15°C° 0 mm 2 mps 748 mmHg 86%
    11:00 -14°C° 0 mm 2 mps 748 mmHg 85%
    12:00 -13°C° 0 mm 2 mps 748 mmHg 84%
    13:00 -10°C° 0 mm 1 mps 748 mmHg 82%
    14:00 -10°C° 0 mm 1 mps 748 mmHg 84%
    15:00 -10°C° 0 mm 1 mps 748 mmHg 86%
    16:00 -11°C° 0 mm 0 mps 748 mmHg 88%
    17:00 -11°C° 0 mm 1 mps 748 mmHg 89%
    18:00 -11°C° 0 mm 1 mps 747 mmHg 90%
    19:00 -11°C° 0 mm 1 mps 747 mmHg 91%
    20:00 -11°C° 0.1 mm 1 mps 747 mmHg 92%
    21:00 -13°C° 0.1 mm 2 mps 747 mmHg 93%
    22:00 -13°C° 0.1 mm 2 mps 747 mmHg 94%
    23:00 -13°C° 0.2 mm 2 mps 746 mmHg 94%

    Day after tomorrow, 20 January, Monday

    Time Temperature Precipitation Wind Pressure Humidity
    00:00 -13°C° 0.2 mm 2 mps 746 mmHg 94%
    01:00 -14°C° 0.2 mm 3 mps 745 mmHg 95%
    02:00 -14°C° 0.3 mm 3 mps 745 mmHg 94%
    03:00 -14°C° 0.3 mm 3 mps 745 mmHg 94%
    04:00 -14°C° 0.3 mm 3 mps 745 mmHg 94%
    05:00 -14°C° 0.2 mm 3 mps 744 mmHg 94%
    06:00 -14°C° 0.2 mm 3 mps 743 mmHg 94%
    07:00 -13°C° 0.2 mm 2 mps 743 mmHg 94%
    08:00 -14°C° 0.3 mm 3 mps 743 mmHg 94%
    09:00 -15°C° 0.3 mm 3 mps 743 mmHg 94%
    10:00 -15°C° 0.3 mm 3 mps 743 mmHg 94%
    11:00 -15°C° 0.2 mm 3 mps 743 mmHg 94%
    12:00 -14°C° 0.2 mm 2 mps 742 mmHg 93%
    13:00 -13°C° 0.2 mm 2 mps 742 mmHg 93%
    14:00 -14°C° 0 mm 2 mps 742 mmHg 94%
    15:00 -15°C° 0 mm 2 mps 743 mmHg 95%
    16:00 -15°C° 0 mm 2 mps 743 mmHg 96%
    17:00 -17°C° 0 mm 2 mps 743 mmHg 97%
    18:00 -16°C° 0 mm 1 mps 743 mmHg 97%
    19:00 -17°C° 0 mm 1 mps 743 mmHg 98%
    20:00 -17°C° 0 mm 1 mps 743 mmHg 98%
    21:00 -18°C° 0 mm 1 mps 744 mmHg 98%
    22:00 -18°C° 0 mm 1 mps 744 mmHg 98%
    23:00 -19°C° 0 mm 1 mps 744 mmHg 99%

    21 January, Tuesday

    Time Temperature Precipitation Wind Pressure Humidity
    00:00 -19°C° 0 mm 1 mps 744 mmHg 99%
    01:00 -19°C° 0 mm 1 mps 744 mmHg 99%
    02:00 -20°C° 0 mm 1 mps 744 mmHg 99%
    03:00 -20°C° 0 mm 1 mps 744 mmHg 99%
    04:00 -20°C° 0 mm 1 mps 744 mmHg 99%
    05:00 -20°C° 0 mm 1 mps 743 mmHg 99%
    06:00 -20°C° 0 mm 1 mps 743 mmHg 99%
    07:00 -20°C° 0 mm 1 mps 743 mmHg 99%
    08:00 -21°C° 0 mm 2 mps 743 mmHg 98%
    09:00 -20°C° 0 mm 2 mps 743 mmHg 97%
    10:00 -19°C° 0 mm 2 mps 743 mmHg 97%
    11:00 -19°C° 0 mm 3 mps 742 mmHg 95%
    12:00 -18°C° 0 mm 3 mps 742 mmHg 94%
    13:00 -17°C° 0 mm 3 mps 741 mmHg 92%
    14:00 -17°C° 0 mm 3 mps 741 mmHg 93%
    15:00 -17°C° 0 mm 3 mps 740 mmHg 93%
    16:00 -18°C° 0 mm 3 mps 740 mmHg 94%
    17:00 -19°C° 0 mm 4 mps 739 mmHg 94%
    18:00 -19°C° 0 mm 4 mps 739 mmHg 94%
    19:00 -19°C° 0 mm 4 mps 738 mmHg 94%
    20:00 -19°C° 0 mm 4 mps 737 mmHg 94%
    21:00 -19°C° 0 mm 4 mps 736 mmHg 94%
    22:00 -19°C° 0 mm 4 mps 736 mmHg 94%
    23:00 -19°C° 0 mm 4 mps 735 mmHg 94%

    22 January, Wednesday

    Time Temperature Precipitation Wind Pressure Humidity
    00:00 -19°C° 0 mm 5 mps 734 mmHg 94%
    01:00 -19°C° 0 mm 5 mps 733 mmHg 94%
    02:00 -18°C° 0 mm 5 mps 732 mmHg 94%
    03:00 -18°C° 0 mm 5 mps 731 mmHg 93%
    04:00 -17°C° 0 mm 5 mps 730 mmHg 93%
    05:00 -15°C° 0 mm 5 mps 729 mmHg 92%
    06:00 -14°C° 0 mm 5 mps 728 mmHg 91%
    07:00 -13°C° 0 mm 5 mps 727 mmHg 90%
    08:00 -12°C° 0.1 mm 5 mps 727 mmHg 91%
    09:00 -12°C° 0.1 mm 5 mps 726 mmHg 91%
    10:00 -11°C° 0.1 mm 5 mps 725 mmHg 92%
    11:00 -10°C° 0.3 mm 5 mps 725 mmHg 92%
    12:00 -10°C° 0.3 mm 5 mps 724 mmHg 92%
    13:00 -8°C° 0.3 mm 5 mps 724 mmHg 93%
    14:00 -8°C° 0.1 mm 4 mps 723 mmHg 92%
    15:00 -9°C° 0.1 mm 4 mps 723 mmHg 91%
    16:00 -8°C° 0.1 mm 3 mps 722 mmHg 90%
    17:00 -8°C° 0 mm 3 mps 722 mmHg 91%
    18:00 -8°C° 0 mm 3 mps 722 mmHg 92%
    19:00 -8°C° 0 mm 3 mps 721 mmHg 92%
    20:00 -8°C° 0 mm 3 mps 721 mmHg 93%
    21:00 -8°C° 0 mm 3 mps 721 mmHg 93%
    22:00 -8°C° 0 mm 3 mps 720 mmHg 94%
    23:00 -8°C° 0.3 mm 3 mps 719 mmHg 94%

    23 January, Thursday

    Time Temperature Precipitation Wind Pressure Humidity
    00:00 -7°C° 0.3 mm 3 mps 719 mmHg 95%
    01:00 -8°C° 0.3 mm 4 mps 718 mmHg 95%
    02:00 -7°C° 0.3 mm 3 mps 718 mmHg 95%
    03:00 -7°C° 0.3 mm 3 mps 717 mmHg 95%
    04:00 -7°C° 0.3 mm 3 mps 716 mmHg 95%
    05:00 -7°C° 0.3 mm 3 mps 715 mmHg 95%
    06:00 -7°C° 0.3 mm 3 mps 715 mmHg 95%
    07:00 -7°C° 0.3 mm 3 mps 714 mmHg 95%
    08:00 -7°C° 0.5 mm 3 mps 713 mmHg 94%
    09:00 -6°C° 0.5 mm 3 mps 713 mmHg 92%
    10:00 -6°C° 0.5 mm 3 mps 713 mmHg 91%
    11:00 -6°C° 0.2 mm 3 mps 713 mmHg 92%
    12:00 -7°C° 0.2 mm 4 mps 714 mmHg 93%
    13:00 -7°C° 0.2 mm 4 mps 714 mmHg 94%
    14:00 -7°C° 0.4 mm 4 mps 715 mmHg 93%
    15:00 -8°C° 0.4 mm 5 mps 717 mmHg 91%
    16:00 -10°C° 0.4 mm 6 mps 718 mmHg 90%
    17:00 -11°C° 0 mm 6 mps 719 mmHg 88%
    18:00 -12°C° 0 mm 6 mps 720 mmHg 86%
    19:00 -14°C° 0 mm 6 mps 721 mmHg 85%
    20:00 -14°C° 0 mm 5 mps 722 mmHg 86%
    21:00 -15°C° 0 mm 5 mps 723 mmHg 87%
    22:00 -16°C° 0 mm 4 mps 724 mmHg 89%
    23:00 -16°C° 0 mm 4 mps 724 mmHg 89%
    Show more